Find MSX

NORAD ID: 23851 Int'l Des: 1996-024 Owner: BMDO Country: US operational
LEOCIRCULARRETROGRADESSO

リアルタイム位置

3D地球を読み込み中...

MSXについて

説明を読み込み中...

次回通過

Passes for default location (London). Set your location on the main map for personalized predictions.

高度履歴

Loading altitude history...

軌道要素

1 23851U 96024A 26104.55733370 -.00000070 00000-0 -18142-4 0 9995
2 23851 99.0395 42.5562 0008551 55.6230 304.5741 13.98388001529450
Epoch: Apr 14, 2026 • Age: 14 hours

現在のステータス

高度 900.8 km
速度 7.41 km/s
衛星直下点 48.73°N, 139.21°E
打ち上げ日 Apr 24, 1996
運用期間 29.9 years
タイプ other

技術仕様

分類 Payload
質量 2782.00 kg
乾燥質量 2704.00 kg
総質量 2782.00 kg
長さ 5.10 m
直径 1.80 m
スパン 5.10 m
形状 Box + 2 Pan
製造者 APL
バスタイプ MSX
フェーズステータス In Orbit
所有者/国 BMDO/US

Most Searched